Location: Amsterdam
(30.7274°N, 84.4357°W)
Time: 19:43:51
(UTC+00:00)

Altair - Pass Details

Date: 11 August 2024
Orbit: 1501 x 1682 km, 47.2° (Epoch: 07 September)

Event Time Altitude Azimuth Distance (km) Brightness Sun altitude
Rises 13:56:36 0° 173° (S) 4,918 10.3 36.1°
Reaches altitude 10° 14:02:00 10° 151° (SSE) 3,923 10.2 37.3°
Maximum altitude 14:06:34 14° 123° (ESE) 3,588 10.5 38.3°
Drops below altitude 10° 14:11:07 10° 95° (E) 3,888 10.9 39.2°
Sets 14:16:19 0° 73° (ENE) 4,845 10.9 40.4°
